• In Schweiz
  • Länderverzeichnis
  • Für 7 Tage
  • Wassertemperatur
  • Satellitenkarten
  • Wetterkarte
  • Widgets
  • user-avatar
    Anmelden

    Stündliche Wetter Serebryane

    Heute, 26 April, Donnerstag

    Zeit Temperatur Niederschläge Wind Luftdruck Luftfeuchtigkeit
    00:00 +16°C° 0,1 mm 5 m/S 746 mmHg 66%
    01:00 +16°C° 0,1 mm 5 m/S 746 mmHg 67%
    02:00 +15°C° 0 mm 5 m/S 745 mmHg 72%
    03:00 +15°C° 0 mm 5 m/S 745 mmHg 74%
    04:00 +15°C° 0 mm 5 m/S 745 mmHg 75%
    05:00 +15°C° 0 mm 6 m/S 745 mmHg 77%
    06:00 +16°C° 0 mm 6 m/S 745 mmHg 74%
    07:00 +17°C° 0 mm 6 m/S 745 mmHg 72%
    08:00 +20°C° 0 mm 6 m/S 745 mmHg 68%
    09:00 +21°C° 0 mm 6 m/S 746 mmHg 63%
    10:00 +23°C° 0 mm 6 m/S 746 mmHg 57%
    11:00 +25°C° 0 mm 5 m/S 746 mmHg 52%
    12:00 +26°C° 0,1 mm 5 m/S 746 mmHg 50%
    13:00 +26°C° 0,1 mm 5 m/S 746 mmHg 48%
    14:00 +26°C° 0 mm 4 m/S 745 mmHg 46%
    15:00 +26°C° 0 mm 4 m/S 745 mmHg 48%
    16:00 +26°C° 0 mm 3 m/S 746 mmHg 49%
    17:00 +25°C° 0 mm 3 m/S 746 mmHg 50%
    18:00 +22°C° 0,1 mm 3 m/S 746 mmHg 55%
    19:00 +21°C° 0,1 mm 3 m/S 746 mmHg 60%
    20:00 +19°C° 0,1 mm 3 m/S 746 mmHg 65%
    21:00 +18°C° 0,3 mm 2 m/S 746 mmHg 67%
    22:00 +17°C° 0,3 mm 2 m/S 747 mmHg 70%
    23:00 +18°C° 0,3 mm 1 m/S 747 mmHg 73%

    Morgen, 27 April, Freitag

    Zeit Temperatur Niederschläge Wind Luftdruck Luftfeuchtigkeit
    00:00 +16°C° 0,5 mm 2 m/S 747 mmHg 76%
    01:00 +16°C° 0,5 mm 2 m/S 747 mmHg 80%
    02:00 +15°C° 0,5 mm 2 m/S 747 mmHg 83%
    03:00 +13°C° 1 mm 3 m/S 747 mmHg 86%
    04:00 +13°C° 1 mm 4 m/S 747 mmHg 88%
    05:00 +12°C° 1 mm 5 m/S 747 mmHg 90%
    06:00 +12°C° 0,7 mm 4 m/S 747 mmHg 89%
    07:00 +12°C° 0,7 mm 4 m/S 747 mmHg 88%
    08:00 +12°C° 0,7 mm 4 m/S 747 mmHg 87%
    09:00 +12°C° 1,8 mm 4 m/S 747 mmHg 88%
    10:00 +12°C° 1,8 mm 4 m/S 748 mmHg 88%
    11:00 +12°C° 1,8 mm 4 m/S 748 mmHg 89%
    12:00 +12°C° 0,2 mm 4 m/S 748 mmHg 85%
    13:00 +13°C° 0,2 mm 4 m/S 748 mmHg 82%
    14:00 +13°C° 0,2 mm 4 m/S 748 mmHg 78%
    15:00 +14°C° 0 mm 4 m/S 749 mmHg 75%
    16:00 +14°C° 0 mm 3 m/S 749 mmHg 72%
    17:00 +14°C° 0 mm 3 m/S 749 mmHg 69%
    18:00 +13°C° 0 mm 3 m/S 749 mmHg 74%
    19:00 +13°C° 0 mm 2 m/S 750 mmHg 78%
    20:00 +12°C° 0 mm 1 m/S 750 mmHg 82%
    21:00 +12°C° 0 mm 2 m/S 751 mmHg 84%
    22:00 +12°C° 0 mm 2 m/S 751 mmHg 85%
    23:00 +10°C° 0 mm 2 m/S 751 mmHg 87%

    übermorgen, 28 April, Samstag

    Zeit Temperatur Niederschläge Wind Luftdruck Luftfeuchtigkeit
    00:00 +10°C° 0 mm 2 m/S 752 mmHg 87%
    01:00 +10°C° 0 mm 2 m/S 752 mmHg 87%
    02:00 +9°C° 0 mm 2 m/S 752 mmHg 88%
    03:00 +9°C° 0 mm 2 m/S 753 mmHg 87%
    04:00 +9°C° 0 mm 2 m/S 753 mmHg 87%
    05:00 +8°C° 0 mm 2 m/S 753 mmHg 87%
    06:00 +10°C° 0 mm 2 m/S 754 mmHg 79%
    07:00 +13°C° 0 mm 2 m/S 754 mmHg 71%
    08:00 +14°C° 0 mm 2 m/S 754 mmHg 63%
    09:00 +16°C° 0 mm 2 m/S 754 mmHg 57%
    10:00 +17°C° 0 mm 2 m/S 755 mmHg 50%
    11:00 +18°C° 0 mm 2 m/S 755 mmHg 44%
    12:00 +18°C° 0 mm 2 m/S 755 mmHg 41%
    13:00 +19°C° 0 mm 2 m/S 755 mmHg 39%
    14:00 +19°C° 0 mm 2 m/S 754 mmHg 37%
    15:00 +20°C° 0 mm 1 m/S 754 mmHg 38%
    16:00 +20°C° 0 mm 1 m/S 754 mmHg 39%
    17:00 +20°C° 0 mm 1 m/S 754 mmHg 40%
    18:00 +17°C° 0 mm 2 m/S 754 mmHg 44%
    19:00 +16°C° 0 mm 2 m/S 754 mmHg 48%
    20:00 +14°C° 0 mm 2 m/S 755 mmHg 53%
    21:00 +14°C° 0 mm 2 m/S 755 mmHg 54%
    22:00 +13°C° 0 mm 2 m/S 755 mmHg 54%
    23:00 +13°C° 0 mm 2 m/S 755 mmHg 55%

    29 April, Sonntag

    Zeit Temperatur Niederschläge Wind Luftdruck Luftfeuchtigkeit
    00:00 +13°C° 0 mm 2 m/S 756 mmHg 57%
    01:00 +12°C° 0 mm 2 m/S 756 mmHg 59%
    02:00 +12°C° 0 mm 2 m/S 756 mmHg 60%
    03:00 +12°C° 0 mm 2 m/S 756 mmHg 62%
    04:00 +10°C° 0 mm 3 m/S 756 mmHg 64%
    05:00 +10°C° 0 mm 3 m/S 756 mmHg 66%
    06:00 +12°C° 0 mm 3 m/S 756 mmHg 62%
    07:00 +14°C° 0 mm 3 m/S 756 mmHg 58%
    08:00 +17°C° 0 mm 3 m/S 756 mmHg 54%
    09:00 +19°C° 0 mm 3 m/S 756 mmHg 49%
    10:00 +20°C° 0 mm 3 m/S 756 mmHg 45%
    11:00 +21°C° 0 mm 3 m/S 756 mmHg 40%
    12:00 +22°C° 0 mm 3 m/S 756 mmHg 39%
    13:00 +24°C° 0 mm 3 m/S 755 mmHg 38%
    14:00 +24°C° 0 mm 3 m/S 755 mmHg 36%
    15:00 +24°C° 0 mm 3 m/S 755 mmHg 38%
    16:00 +24°C° 0 mm 3 m/S 754 mmHg 40%
    17:00 +24°C° 0 mm 2 m/S 754 mmHg 42%
    18:00 +21°C° 0 mm 2 m/S 754 mmHg 46%
    19:00 +19°C° 0 mm 3 m/S 754 mmHg 49%
    20:00 +17°C° 0 mm 3 m/S 754 mmHg 53%
    21:00 +17°C° 0 mm 3 m/S 754 mmHg 54%
    22:00 +16°C° 0 mm 3 m/S 754 mmHg 55%
    23:00 +16°C° 0 mm 3 m/S 754 mmHg 57%

    30 April, Montag

    Zeit Temperatur Niederschläge Wind Luftdruck Luftfeuchtigkeit
    00:00 +14°C° 0 mm 3 m/S 754 mmHg 60%
    01:00 +13°C° 0 mm 3 m/S 754 mmHg 63%
    02:00 +13°C° 0 mm 3 m/S 754 mmHg 66%
    03:00 +13°C° 0 mm 2 m/S 754 mmHg 68%
    04:00 +13°C° 0 mm 2 m/S 754 mmHg 70%
    05:00 +13°C° 0 mm 2 m/S 754 mmHg 73%
    06:00 +15°C° 0 mm 2 m/S 754 mmHg 66%
    07:00 +17°C° 0 mm 3 m/S 754 mmHg 60%
    08:00 +19°C° 0 mm 3 m/S 754 mmHg 54%
    09:00 +20°C° 0 mm 4 m/S 754 mmHg 50%
    10:00 +21°C° 0 mm 4 m/S 754 mmHg 46%
    11:00 +23°C° 0 mm 5 m/S 753 mmHg 42%
    12:00 +23°C° 0 mm 5 m/S 753 mmHg 40%
    13:00 +25°C° 0 mm 5 m/S 753 mmHg 39%
    14:00 +25°C° 0 mm 5 m/S 752 mmHg 38%
    15:00 +25°C° 0 mm 4 m/S 752 mmHg 40%
    16:00 +25°C° 0 mm 4 m/S 752 mmHg 42%
    17:00 +25°C° 0 mm 3 m/S 751 mmHg 44%
    18:00 +22°C° 0 mm 3 m/S 751 mmHg 48%
    19:00 +20°C° 0 mm 3 m/S 751 mmHg 52%
    20:00 +18°C° 0 mm 3 m/S 751 mmHg 56%
    21:00 +17°C° 0 mm 3 m/S 752 mmHg 58%
    22:00 +17°C° 0 mm 3 m/S 752 mmHg 59%
    23:00 +16°C° 0 mm 3 m/S 752 mmHg 60%

    1 Mai, Dienstag

    Zeit Temperatur Niederschläge Wind Luftdruck Luftfeuchtigkeit
    00:00 +15°C° 0 mm 2 m/S 752 mmHg 61%
    01:00 +15°C° 0 mm 2 m/S 752 mmHg 62%
    02:00 +14°C° 0 mm 2 m/S 752 mmHg 63%
    03:00 +14°C° 0 mm 2 m/S 752 mmHg 65%
    04:00 +14°C° 0 mm 2 m/S 752 mmHg 67%
    05:00 +13°C° 0 mm 2 m/S 752 mmHg 69%
    06:00 +14°C° 0 mm 3 m/S 752 mmHg 65%
    07:00 +17°C° 0 mm 3 m/S 752 mmHg 61%
    08:00 +19°C° 0 mm 3 m/S 752 mmHg 58%
    09:00 +21°C° 0 mm 3 m/S 752 mmHg 51%
    10:00 +22°C° 0 mm 4 m/S 752 mmHg 45%
    11:00 +25°C° 0 mm 4 m/S 752 mmHg 39%
    12:00 +26°C° 0 mm 4 m/S 752 mmHg 36%
    13:00 +26°C° 0 mm 4 m/S 752 mmHg 34%
    14:00 +27°C° 0 mm 4 m/S 751 mmHg 31%
    15:00 +27°C° 0 mm 3 m/S 751 mmHg 34%
    16:00 +26°C° 0 mm 3 m/S 751 mmHg 37%
    17:00 +26°C° 0 mm 3 m/S 751 mmHg 39%
    18:00 +24°C° 0 mm 3 m/S 751 mmHg 42%
    19:00 +21°C° 0 mm 2 m/S 751 mmHg 46%
    20:00 +19°C° 0 mm 2 m/S 751 mmHg 49%
    21:00 +18°C° 0 mm 2 m/S 751 mmHg 51%
    22:00 +17°C° 0 mm 2 m/S 751 mmHg 53%
    23:00 +16°C° 0 mm 2 m/S 751 mmHg 56%
    Mehr zeigen